Weather History for Billings, MT

Change the Weather History Date:

Friday, March 9, 2012

  Actual Average Record
Temperature  
Mean Temperature 55 °F 36 °F  
Max Temperature 68 °F 47 °F 72 °F (2005)
Min Temperature 41 °F 25 °F -13 °F (1951)
Degree Days  
Heating Degree Days 10 29  
Month to date heating degree days 219 272  
Since 1 July heating degree days 4727 5237  
Cooling Degree Days 0 0  
Month to date cooling degree days 0 0  
Year to date cooling degree days 0 0  
Growing Degree Days 4 (Base 50)    
Moisture  
Dew Point 13 °F    
Average Humidity 23    
Maximum Humidity 36    
Minimum Humidity 10    
Precipitation  
Precipitation 0.00 in 0.03 in 0.75 in (1935)
Month to date precipitation 0.10 0.23  
Year to date precipitation 0.95 1.19  
Snow  
Snow 0.00 in 0.40 in 13.10 in (1935)
Month to date snowfall 1.2 2.8  
Since 1 July snowfall 30.0 37.3  
Snow Depth 0.00 in    
Sea Level Pressure  
Sea Level Pressure 30.10 in    
Wind  
Wind Speed 21 mph (WSW)    
Max Wind Speed 30 mph    
Max Gust Speed 38 mph    
Visibility 10 miles    
Events      
T = Trace of Precipitation, MM = Missing Value Source: NWS Daily Summary

Daily Weather History Graph

Daily Weather History Graph

Search for Another Location

Airport:

Trip Planner

Search our weather history database for the weather conditions in past years. The results will help you decide how hot, cold, wet, or windy it might be!

Date:

Astronomy

Mar. 09, 2012 Rise Set
Actual Time 6:37 AM MST 6:12 PM MST
Civil Twilight 6:07 AM MST 6:42 PM MST
Nautical Twilight 5:32 AM MST 7:16 PM MST
Astronomical Twilight 4:58 AM MST 7:51 PM MST
Moon 8:26 PM MST (3/9) 6:49 AM MST (3/9)
Length of Visible Light 12h 34m
Length of Day
11h 35m
Full, 97% of the Moon is Illuminated
Mar 9
Full
Mar 14
Last Quarter
Mar 22
New
Mar 30
First Quarter
Apr 6
Full

Hourly Weather History & Observations

Time (MST) Temp. Windchill Dew Point Humidity Pressure Visibility Wind Dir Wind Speed Gust Speed Precip Events Conditions
12:53 AM 42.1 °F 32.6 °F 17.1 °F 37% 30.31 in 10.0 mi WSW 23.0 mph 29.9 mph N/A   Clear
1:53 AM 42.1 °F 32.8 °F 16.0 °F 35% 30.31 in 10.0 mi WSW 21.9 mph - N/A   Clear
2:53 AM 41.0 °F 31.6 °F 15.1 °F 35% 30.28 in 10.0 mi WSW 20.7 mph - N/A   Clear
3:53 AM 41.0 °F 32.2 °F 15.1 °F 35% 30.26 in 10.0 mi SW 18.4 mph - N/A   Clear
4:53 AM 42.1 °F 32.3 °F 15.1 °F 34% 30.24 in 10.0 mi WSW 24.2 mph - N/A   Clear
5:53 AM 43.0 °F 34.5 °F 15.1 °F 32% 30.23 in 10.0 mi WSW 19.6 mph 27.6 mph N/A   Clear
6:53 AM 44.1 °F 34.8 °F 12.9 °F 28% 30.21 in 10.0 mi WSW 25.3 mph 32.2 mph N/A   Scattered Clouds
7:53 AM 46.0 °F 38.8 °F 12.9 °F 26% 30.22 in 10.0 mi WSW 18.4 mph 29.9 mph N/A   Scattered Clouds
8:53 AM 52.0 °F - 14.0 °F 22% 30.19 in 10.0 mi WSW 23.0 mph 31.1 mph N/A   Scattered Clouds
9:53 AM 55.9 °F - 14.0 °F 19% 30.17 in 10.0 mi WSW 25.3 mph 31.1 mph N/A   Partly Cloudy
10:53 AM 60.1 °F - 14.0 °F 16% 30.14 in 10.0 mi WSW 23.0 mph 32.2 mph N/A   Partly Cloudy
11:53 AM 64.0 °F - 8.1 °F 11% 30.10 in 10.0 mi WSW 28.8 mph 36.8 mph N/A   Partly Cloudy
12:53 PM 64.9 °F - 8.1 °F 11% 30.06 in 10.0 mi WSW 24.2 mph 33.4 mph N/A   Partly Cloudy
1:53 PM 66.0 °F - 8.1 °F 10% 30.04 in 10.0 mi SW 26.5 mph 36.8 mph N/A   Partly Cloudy
2:53 PM 66.9 °F - 9.0 °F 10% 30.01 in 10.0 mi SW 24.2 mph 31.1 mph N/A   Partly Cloudy
3:53 PM 66.9 °F - 10.0 °F 11% 29.99 in 10.0 mi SW 20.7 mph 29.9 mph N/A   Partly Cloudy
4:53 PM 64.9 °F - 10.0 °F 12% 29.96 in 10.0 mi SW 20.7 mph 29.9 mph N/A   Scattered Clouds
5:53 PM 62.1 °F - 10.9 °F 13% 29.94 in 10.0 mi WSW 16.1 mph 24.2 mph N/A   Scattered Clouds
6:53 PM 57.9 °F - 10.9 °F 16% 29.96 in 10.0 mi WSW 11.5 mph - N/A   Scattered Clouds
7:53 PM 57.0 °F - 12.9 °F 18% 29.96 in 10.0 mi West 15.0 mph - N/A   Partly Cloudy
8:53 PM 55.9 °F - 16.0 °F 21% 29.95 in 10.0 mi WSW 15.0 mph - N/A   Clear
9:53 PM 54.0 °F - 15.1 °F 22% 29.94 in 10.0 mi WSW 16.1 mph - N/A   Clear
10:53 PM 54.0 °F - 15.1 °F 22% 29.92 in 10.0 mi WSW 16.1 mph - N/A   Clear
11:53 PM 52.0 °F - 15.1 °F 23% 29.91 in 10.0 mi WSW 16.1 mph - N/A   Clear